| time (UTC) | temp F | wind direction | speed MPH | gust MPH | rain 1hr in | rain 24hr in | rain mn in | humidity % | barometer mb |
| 20260507191610 | 62 | 295 | 2.0 | 9.0 | 0.00 | 0.01 | 0.01 | 33 | 1004.1 |
| 20260507191107 | 63 | 356 | 4.0 | 14.0 | 0.00 | 0.01 | 0.01 | 33 | 1004.0 |
| 20260507190604 | 62 | 292 | 7.0 | 17.0 | 0.00 | 0.01 | 0.01 | 36 | 1004.1 |
| 20260507185601 | 63 | 312 | 5.0 | 14.0 | 0.00 | 0.01 | 0.01 | 32 | 1004.2 |
| 20260507185057 | 64 | 262 | 4.0 | 7.0 | 0.00 | 0.01 | 0.01 | 35 | 1004.3 |
| 20260507184556 | 63 | 58 | 2.0 | 9.0 | 0.00 | 0.01 | 0.01 | 35 | 1004.4 |
| 20260507184053 | 63 | 20 | 3.0 | 5.0 | 0.00 | 0.01 | 0.01 | 34 | 1004.3 |
| 20260507183549 | 62 | 273 | 6.0 | 11.0 | 0.00 | 0.01 | 0.01 | 34 | 1004.0 |
| 20260507183046 | 63 | 297 | 7.0 | 11.0 | 0.00 | 0.01 | 0.01 | 34 | 1004.3 |
| 20260507182542 | 62 | 325 | 3.0 | 9.0 | 0.00 | 0.01 | 0.01 | 35 | 1004.3 |
| 20260507182038 | 62 | 42 | 6.0 | 11.0 | 0.00 | 0.01 | 0.01 | 32 | 1004.3 |
| 20260507181536 | 62 | 319 | 5.0 | 9.0 | 0.00 | 0.01 | 0.01 | 37 | 1004.6 |
| 20260507181032 | 62 | 308 | 9.0 | 24.0 | 0.00 | 0.01 | 0.01 | 35 | 1004.7 |
| 20260507180528 | 61 | 311 | 5.0 | 11.0 | 0.00 | 0.01 | 0.01 | 33 | 1004.5 |
| 20260507180025 | 62 | 283 | 0.0 | 16.0 | 0.00 | 0.01 | 0.01 | 36 | 1004.6 |
| 20260507175521 | 62 | 331 | 10.0 | 10.0 | 0.00 | 0.01 | 0.01 | 36 | 1004.5 |
| 20260507175019 | 62 | 311 | 2.0 | 10.0 | 0.00 | 0.01 | 0.01 | 34 | 1004.4 |
| 20260507174516 | 63 | 341 | 2.0 | 5.0 | 0.00 | 0.01 | 0.01 | 36 | 1004.2 |
| 20260507174014 | 63 | 8 | 2.0 | 7.0 | 0.00 | 0.01 | 0.01 | 34 | 1004.2 |
| 20260507173510 | 62 | 356 | 3.0 | 10.0 | 0.00 | 0.01 | 0.01 | 35 | 1004.4 |
| 20260507173008 | 63 | 294 | 6.0 | 13.0 | 0.00 | 0.01 | 0.01 | 35 | 1004.4 |
| 20260507172503 | 62 | 286 | 5.0 | 8.0 | 0.00 | 0.01 | 0.01 | 37 | 1004.3 |
| 20260507172000 | 62 | 320 | 7.0 | 9.0 | 0.00 | 0.01 | 0.01 | 37 | 1004.1 |
| 20260507171455 | 62 | 277 | 6.0 | 10.0 | 0.00 | 0.01 | 0.01 | 37 | 1004.4 |
| 20260507170953 | 62 | 274 | 4.0 | 9.0 | 0.00 | 0.01 | 0.01 | 38 | 1004.7 |
| 20260507170450 | 61 | 9 | 3.0 | 8.0 | 0.00 | 0.01 | 0.01 | 40 | 1004.8 |
| 20260507165946 | 60 | 331 | 8.0 | 9.0 | 0.00 | 0.01 | 0.01 | 39 | 1004.8 |
| 20260507165442 | 61 | 289 | 5.0 | 11.0 | 0.00 | 0.01 | 0.01 | 38 | 1005.1 |
| 20260507164938 | 59 | 342 | 5.0 | 18.0 | 0.00 | 0.01 | 0.01 | 37 | 1005.1 |
| 20260507164436 | 60 | 357 | 5.0 | 13.0 | 0.00 | 0.01 | 0.01 | 37 | 1005.0 |
| 20260507163932 | 60 | 279 | 12.0 | 12.0 | 0.00 | 0.01 | 0.01 | 40 | 1004.8 |
| 20260507163430 | 61 | 327 | 4.0 | 11.0 | 0.00 | 0.01 | 0.01 | 37 | 1004.9 |
| 20260507162927 | 60 | 277 | 4.0 | 9.0 | 0.00 | 0.01 | 0.01 | 42 | 1005.3 |
| 20260507162422 | 59 | 0 | 3.0 | 16.0 | 0.00 | 0.01 | 0.01 | 40 | 1004.9 |
| 20260507161919 | 61 | 316 | 9.0 | 14.0 | 0.00 | 0.01 | 0.01 | 41 | 1005.1 |
| 20260507161415 | 60 | 284 | 5.0 | 10.0 | 0.00 | 0.01 | 0.01 | 46 | 1004.9 |
| 20260507160912 | 59 | 67 | 4.0 | 8.0 | 0.00 | 0.01 | 0.01 | 53 | 1005.3 |
| 20260507160408 | 57 | 284 | 5.0 | 8.0 | 0.00 | 0.01 | 0.01 | 58 | 1005.3 |
| 20260507155904 | 57 | 318 | 4.0 | 14.0 | 0.00 | 0.01 | 0.01 | 56 | 1005.3 |
| 20260507155400 | 58 | 272 | 11.0 | 13.0 | 0.00 | 0.01 | 0.01 | 54 | 1005.0 |
| 20260507154857 | 59 | 279 | 4.0 | 11.0 | 0.00 | 0.01 | 0.01 | 55 | 1005.3 |
| 20260507154354 | 57 | 336 | 2.0 | 9.0 | 0.00 | 0.01 | 0.01 | 59 | 1005.2 |
| 20260507153948 | 58 | 351 | 4.0 | 13.0 | 0.00 | 0.01 | 0.01 | 57 | 1005.4 |
| 20260507153852 | 58 | 351 | 4.0 | 13.0 | 0.00 | 0.01 | 0.01 | 57 | 1005.4 |
| 20260507153607 | 58 | 175 | 2.0 | 8.0 | 0.00 | 0.01 | 0.01 | 58 | 1005.5 |
| 20260507153348 | 58 | 175 | 2.0 | 8.0 | 0.00 | 0.01 | 0.01 | 58 | 1005.5 |
| 20260507153153 | 57 | 0 | 2.0 | 4.0 | 0.00 | 0.01 | 0.01 | 58 | 1005.6 |
| 20260507152844 | 57 | 0 | 2.0 | 4.0 | 0.00 | 0.01 | 0.01 | 58 | 1005.6 |
| 20260507152432 | 58 | 338 | 3.0 | 5.0 | 0.00 | 0.01 | 0.01 | 61 | 1005.6 |
| 20260507152340 | 57 | 312 | 5.0 | 7.0 | 0.00 | 0.01 | 0.01 | 57 | 1005.6 |
| 20260507151837 | 58 | 338 | 3.0 | 5.0 | 0.00 | 0.01 | 0.01 | 61 | 1005.6 |
| 20260507151332 | 56 | 348 | 3.0 | 7.0 | 0.00 | 0.01 | 0.01 | 60 | 1006.0 |
| 20260507150830 | 56 | 303 | 7.0 | 9.0 | 0.00 | 0.01 | 0.01 | 59 | 1006.0 |
| 20260507150321 | 57 | 288 | 4.0 | 5.0 | 0.00 | 0.01 | 0.01 | 58 | 1006.0 |
| 20260507145817 | 57 | 18 | 5.0 | 6.0 | 0.00 | 0.01 | 0.01 | 58 | 1005.9 |
| 20260507145314 | 56 | 312 | 2.0 | 9.0 | 0.00 | 0.01 | 0.01 | 57 | 1006.1 |
| 20260507144811 | 57 | 0 | 2.0 | 9.0 | 0.00 | 0.01 | 0.01 | 62 | 1005.6 |
| 20260507144308 | 57 | 325 | 6.0 | 8.0 | 0.00 | 0.01 | 0.01 | 56 | 1005.9 |
| 20260507143804 | 58 | 2 | 2.0 | 9.0 | 0.00 | 0.01 | 0.01 | 57 | 1006.0 |
| 20260507143302 | 60 | 322 | 1.0 | 4.0 | 0.00 | 0.01 | 0.01 | 52 | 1005.7 |
| 20260507142758 | 58 | 302 | 5.0 | 6.0 | 0.00 | 0.01 | 0.01 | 57 | 1005.7 |
| 20260507142254 | 58 | 313 | 4.0 | 6.0 | 0.00 | 0.01 | 0.01 | 55 | 1005.8 |
| 20260507141751 | 57 | 255 | 8.0 | 14.0 | 0.00 | 0.01 | 0.01 | 52 | 1005.7 |
| 20260507141248 | 57 | 267 | 7.0 | 14.0 | 0.00 | 0.01 | 0.01 | 56 | 1005.7 |
| 20260507140744 | 58 | 263 | 7.0 | 11.0 | 0.00 | 0.01 | 0.01 | 58 | 1005.7 |
| 20260507140242 | 58 | 20 | 3.0 | 3.0 | 0.00 | 0.01 | 0.01 | 56 | 1005.8 |
| 20260507135738 | 57 | 63 | 6.0 | 6.0 | 0.00 | 0.01 | 0.01 | 55 | 1005.8 |
| 20260507135236 | 56 | 301 | 5.0 | 8.0 | 0.00 | 0.01 | 0.01 | 59 | 1005.7 |
| 20260507134732 | 57 | 315 | 3.0 | 5.0 | 0.00 | 0.01 | 0.01 | 57 | 1005.6 |
| 20260507134228 | 58 | 354 | 2.0 | 6.0 | 0.00 | 0.01 | 0.01 | 60 | 1005.7 |
| 20260507133724 | 56 | 98 | 3.0 | 6.0 | 0.00 | 0.01 | 0.01 | 60 | 1005.9 |
| 20260507133221 | 55 | 283 | 5.0 | 8.0 | 0.00 | 0.01 | 0.01 | 58 | 1005.9 |
| 20260507132719 | 55 | 322 | 4.0 | 9.0 | 0.00 | 0.01 | 0.01 | 61 | 1006.1 |
| 20260507132215 | 56 | 249 | 9.0 | 9.0 | 0.00 | 0.01 | 0.01 | 64 | 1006.1 |
| 20260507131712 | 57 | 258 | 11.0 | 11.0 | 0.00 | 0.01 | 0.01 | 66 | 1006.3 |
| 20260507131210 | 55 | 93 | 3.0 | 5.0 | 0.00 | 0.01 | 0.01 | 64 | 1006.4 |
| 20260507130706 | 55 | 319 | 5.0 | 7.0 | 0.00 | 0.01 | 0.01 | 65 | 1006.3 |
| 20260507130204 | 54 | 280 | 9.0 | 12.0 | 0.00 | 0.01 | 0.01 | 66 | 1006.2 |
| 20260507125703 | 54 | 256 | 5.0 | 8.0 | 0.00 | 0.01 | 0.01 | 69 | 1006.4 |
| 20260507125200 | 54 | 298 | 3.0 | 14.0 | 0.00 | 0.01 | 0.01 | 64 | 1006.2 |
| 20260507124656 | 54 | 56 | 4.0 | 5.0 | 0.00 | 0.01 | 0.01 | 66 | 1006.1 |
| 20260507124153 | 53 | 288 | 9.0 | 9.0 | 0.00 | 0.01 | 0.01 | 67 | 1006.3 |
| 20260507123652 | 53 | 15 | 2.0 | 5.0 | 0.00 | 0.01 | 0.01 | 68 | 1006.3 |
| 20260507123149 | 52 | 301 | 4.0 | 8.0 | 0.00 | 0.01 | 0.01 | 71 | 1006.4 |
| 20260507122644 | 52 | 297 | 5.0 | 18.0 | 0.00 | 0.01 | 0.01 | 72 | 1006.2 |
| 20260507122140 | 52 | 51 | 4.0 | 6.0 | 0.00 | 0.01 | 0.01 | 76 | 1006.1 |
| 20260507121636 | 52 | 271 | 3.0 | 4.0 | 0.00 | 0.01 | 0.01 | 77 | 1006.5 |
| 20260507121132 | 51 | 226 | 2.0 | 3.0 | 0.00 | 0.01 | 0.01 | 80 | 1006.6 |
| 20260507120628 | 50 | 332 | 2.0 | 3.0 | 0.00 | 0.01 | 0.01 | 81 | 1006.4 |
| 20260507120125 | 49 | 55 | 2.0 | 3.0 | 0.00 | 0.01 | 0.01 | 83 | 1006.4 |
| 20260507115621 | 49 | 215 | 0.0 | 4.0 | 0.00 | 0.01 | 0.01 | 83 | 1006.3 |
| 20260507115117 | 49 | 320 | 3.0 | 5.0 | 0.00 | 0.01 | 0.01 | 82 | 1006.2 |
| 20260507114613 | 49 | 332 | 0.0 | 5.0 | 0.00 | 0.01 | 0.01 | 83 | 1006.3 |
| 20260507114110 | 49 | 355 | 3.0 | 5.0 | 0.00 | 0.01 | 0.01 | 83 | 1006.3 |
| 20260507113608 | 49 | 30 | 2.0 | 3.0 | 0.00 | 0.01 | 0.01 | 83 | 1006.0 |
| 20260507113105 | 49 | 44 | 0.0 | 3.0 | 0.00 | 0.01 | 0.01 | 84 | 1006.2 |
| 20260507112603 | 48 | 89 | 0.0 | 4.0 | 0.00 | 0.01 | 0.01 | 84 | 1006.1 |
| 20260507112059 | 48 | 78 | 2.0 | 3.0 | 0.00 | 0.01 | 0.01 | 85 | 1006.0 |
| 20260507111556 | 48 | 16 | 2.0 | 4.0 | 0.00 | 0.01 | 0.01 | 84 | 1006.2 |
| 20260507111053 | 48 | 276 | 4.0 | 5.0 | 0.00 | 0.01 | 0.01 | 85 | 1006.2 |
| 20260507110549 | 48 | 63 | 3.0 | 4.0 | 0.00 | 0.01 | 0.01 | 85 | 1006.3 |
| 20260507110046 | 48 | 180 | 2.0 | 7.0 | 0.00 | 0.01 | 0.01 | 85 | 1006.2 |
| 20260507105543 | 48 | 7 | 2.0 | 4.0 | 0.00 | 0.01 | 0.01 | 85 | 1006.1 |
| 20260507105038 | 47 | 27 | 2.0 | 6.0 | 0.00 | 0.01 | 0.01 | 86 | 1005.8 |
| 20260507104536 | 47 | 48 | 2.0 | 5.0 | 0.00 | 0.01 | 0.01 | 86 | 1005.5 |
| 20260507104032 | 47 | 86 | 2.0 | 3.0 | 0.00 | 0.01 | 0.01 | 86 | 1005.7 |
| 20260507103528 | 47 | 69 | 4.0 | 7.0 | 0.00 | 0.01 | 0.01 | 86 | 1005.6 |
| 20260507103025 | 47 | 100 | 2.0 | 3.0 | 0.00 | 0.01 | 0.01 | 86 | 1005.8 |
| 20260507102522 | 47 | 343 | 2.0 | 3.0 | 0.00 | 0.01 | 0.01 | 87 | 1005.7 |
| 20260507102018 | 47 | 349 | 2.0 | 3.0 | 0.00 | 0.01 | 0.01 | 86 | 1005.6 |
| 20260507101514 | 48 | 320 | 3.0 | 3.0 | 0.00 | 0.01 | 0.01 | 87 | 1005.9 |
| 20260507101010 | 47 | 295 | 4.0 | 8.0 | 0.00 | 0.01 | 0.01 | 86 | 1005.5 |
| 20260507100508 | 47 | 228 | 0.0 | 6.0 | 0.00 | 0.01 | 0.01 | 87 | 1005.7 |
| 20260507100006 | 47 | 325 | 0.0 | 3.0 | 0.00 | 0.01 | 0.01 | 88 | 1005.5 |
| 20260507095503 | 47 | 8 | 3.0 | 6.0 | 0.00 | 0.01 | 0.01 | 88 | 1005.8 |
| 20260507094959 | 47 | 334 | 1.0 | 5.0 | 0.00 | 0.01 | 0.01 | 89 | 1005.8 |
| 20260507094456 | 47 | 309 | 2.0 | 4.0 | 0.00 | 0.01 | 0.01 | 90 | 1005.8 |
| 20260507093953 | 47 | 345 | 2.0 | 5.0 | 0.00 | 0.01 | 0.01 | 90 | 1005.8 |
| 20260507093450 | 47 | 287 | 1.0 | 5.0 | 0.00 | 0.01 | 0.01 | 90 | 1006.1 |
| 20260507092949 | 47 | 117 | 3.0 | 4.0 | 0.00 | 0.01 | 0.01 | 91 | 1005.6 |
| 20260507092445 | 47 | 21 | 2.0 | 6.0 | 0.00 | 0.01 | 0.01 | 91 | 1005.8 |
| 20260507091942 | 47 | 285 | 4.0 | 5.0 | 0.00 | 0.01 | 0.01 | 92 | 1005.8 |
| 20260507091438 | 47 | 25 | 3.0 | 4.0 | 0.00 | 0.01 | 0.01 | 93 | 1005.6 |
| 20260507090934 | 47 | 296 | 4.0 | 5.0 | 0.02 | 0.01 | 0.01 | 93 | 1005.9 |
| 20260507090430 | 47 | 352 | 2.0 | 6.0 | 0.02 | 0.01 | 0.01 | 94 | 1005.4 |
| 20260507085926 | 47 | 291 | 2.0 | 4.0 | 0.00 | 0.01 | 0.01 | 95 | 1005.6 |
| 20260507085424 | 47 | 307 | 2.0 | 5.0 | 0.00 | 0.01 | 0.01 | 95 | 1005.3 |
| 20260507084916 | 47 | 89 | 0.0 | 4.0 | 0.00 | 0.01 | 0.01 | 95 | 1005.9 |
| 20260507084412 | 47 | 246 | 0.0 | 3.0 | 0.00 | 0.01 | 0.01 | 95 | 1005.8 |
| 20260507083910 | 47 | 221 | 0.0 | 3.0 | 0.00 | 0.01 | 0.01 | 95 | 1005.5 |
| 20260507083406 | 48 | 251 | 1.0 | 2.0 | 0.00 | 0.01 | 0.01 | 95 | 1005.2 |
| 20260507082902 | 48 | 45 | 3.0 | 4.0 | 0.00 | 0.01 | 0.01 | 94 | 1005.2 |
| 20260507082358 | 48 | 51 | 3.0 | 3.0 | 0.00 | 0.01 | 0.01 | 93 | 1005.4 |
| 20260507081855 | 48 | 88 | 2.0 | 3.0 | 0.02 | 0.01 | 0.01 | 92 | 1005.3 |
| 20260507081351 | 48 | 332 | 1.0 | 2.0 | 0.02 | 0.01 | 0.01 | 92 | 1005.3 |
| 20260507080848 | 48 | 50 | 1.0 | 2.0 | 0.02 | 0.00 | 0.00 | 91 | 1005.2 |
| 20260507080344 | 49 | 35 | 1.0 | 5.0 | 0.02 | 0.00 | 0.00 | 89 | 1005.4 |
| 20260507075839 | 49 | 337 | 3.0 | 5.0 | 0.00 | 0.00 | 0.00 | 88 | 1005.4 |
| 20260507075336 | 49 | 260 | 1.0 | 3.0 | 0.00 | 0.00 | 0.00 | 88 | 1005.6 |
| 20260507074832 | 49 | 25 | 3.0 | 5.0 | 0.00 | 0.00 | 0.00 | 87 | 1005.6 |
| 20260507074330 | 49 | 349 | 5.0 | 7.0 | 0.00 | 0.00 | 0.00 | 87 | 1005.6 |
| 20260507073827 | 49 | 313 | 3.0 | 7.0 | 0.00 | 0.00 | 0.00 | 87 | 1005.3 |
| 20260507073324 | 49 | 18 | 3.0 | 9.0 | 0.00 | 0.00 | 0.00 | 88 | 1005.1 |
| 20260507072821 | 49 | 31 | 3.0 | 4.0 | 0.00 | 0.00 | 0.00 | 88 | 1005.4 |
| 20260507072318 | 50 | 43 | 4.0 | 5.0 | 0.00 | 0.00 | 0.00 | 88 | 1005.2 |
| 20260507071816 | 50 | 56 | 3.0 | 5.0 | 0.00 | 0.00 | 0.00 | 88 | 1004.9 |
| 20260507071312 | 50 | 60 | 3.0 | 4.0 | 0.00 | 0.00 | 0.00 | 88 | 1005.2 |
| 20260507070809 | 50 | 50 | 4.0 | 6.0 | 0.00 | 0.00 | 0.00 | 88 | 1005.1 |
| 20260507070306 | 50 | 7 | 1.0 | 5.0 | 0.00 | 0.00 | 0.00 | 89 | 1005.5 |
| 20260507065803 | 50 | 30 | 1.0 | 7.0 | 0.00 | 0.00 | 0.00 | 88 | 1005.2 |
| 20260507065259 | 50 | 80 | 5.0 | 6.0 | 0.00 | 0.00 | 0.00 | 89 | 1004.9 |
| 20260507064756 | 50 | 272 | 3.0 | 4.0 | 0.00 | 0.00 | 0.00 | 89 | 1004.6 |
| 20260507064255 | 50 | 305 | 3.0 | 5.0 | 0.00 | 0.00 | 0.00 | 89 | 1004.9 |
| 20260507063753 | 50 | 276 | 3.0 | 4.0 | 0.00 | 0.00 | 0.00 | 90 | 1005.1 |
| 20260507063249 | 50 | 60 | 2.0 | 5.0 | 0.00 | 0.00 | 0.00 | 90 | 1004.9 |
| 20260507062746 | 50 | 50 | 3.0 | 6.0 | 0.00 | 0.00 | 0.00 | 90 | 1004.7 |
| 20260507062243 | 50 | 15 | 2.0 | 8.0 | 0.00 | 0.00 | 0.00 | 90 | 1004.7 |
| 20260507061741 | 50 | 321 | 3.0 | 5.0 | 0.00 | 0.00 | 0.00 | 92 | 1004.7 |
| 20260507061239 | 50 | 309 | 2.0 | 3.0 | 0.00 | 0.00 | 0.00 | 92 | 1004.8 |
| 20260507060737 | 51 | 278 | 4.0 | 5.0 | 0.00 | 0.00 | 0.00 | 91 | 1004.7 |
| 20260507060233 | 51 | 327 | 4.0 | 13.0 | 0.00 | 0.00 | 0.00 | 91 | 1005.0 |
| 20260507055730 | 51 | 329 | 3.0 | 10.0 | 0.00 | 0.00 | 0.00 | 90 | 1004.9 |
| 20260507055225 | 51 | 278 | 5.0 | 7.0 | 0.00 | 0.00 | 0.00 | 90 | 1005.0 |
| 20260507054721 | 51 | 293 | 4.0 | 6.0 | 0.00 | 0.00 | 0.00 | 91 | 1005.2 |
| 20260507054219 | 51 | 29 | 3.0 | 6.0 | 0.00 | 0.00 | 0.00 | 91 | 1005.3 |
| 20260507053716 | 51 | 340 | 1.0 | 5.0 | 0.00 | 0.00 | 0.00 | 92 | 1005.3 |
| 20260507053214 | 51 | 359 | 2.0 | 4.0 | 0.00 | 0.00 | 0.00 | 93 | 1005.2 |
| 20260507052713 | 51 | 298 | 0.0 | 4.0 | 0.00 | 0.00 | 0.00 | 94 | 1005.1 |
| 20260507052208 | 51 | 7 | 3.0 | 4.0 | 0.00 | 0.00 | 0.00 | 94 | 1005.3 |
| 20260507051706 | 51 | 53 | 2.0 | 3.0 | 0.00 | 0.00 | 0.00 | 95 | 1005.4 |
| 20260507051203 | 51 | 22 | 0.0 | 4.0 | 0.00 | 0.00 | 0.00 | 95 | 1005.2 |
| 20260507050659 | 52 | 64 | 2.0 | 3.0 | 0.00 | 0.00 | 0.00 | 95 | 1005.0 |
| 20260507050156 | 52 | 8 | 0.0 | 2.0 | 0.00 | 0.00 | 0.00 | 95 | 1005.0 |
| 20260507045653 | 52 | 283 | 2.0 | 5.0 | 0.00 | 0.00 | 0.00 | 95 | 1004.8 |
| 20260507045149 | 52 | 273 | 7.0 | 10.0 | 0.00 | 0.00 | 0.00 | 95 | 1004.9 |
| 20260507044646 | 52 | 267 | 3.0 | 5.0 | 0.00 | 0.00 | 0.00 | 96 | 1004.9 |
| 20260507044143 | 52 | 324 | 2.0 | 6.0 | 0.00 | 0.00 | 0.00 | 95 | 1004.9 |
| 20260507043639 | 52 | 245 | 3.0 | 6.0 | 0.00 | 0.00 | 0.00 | 95 | 1005.1 |
| 20260507043136 | 52 | 291 | 4.0 | 6.0 | 0.00 | 0.00 | 0.00 | 95 | 1005.0 |
| 20260507042633 | 52 | 277 | 3.0 | 4.0 | 0.00 | 0.00 | 0.00 | 95 | 1005.1 |
| 20260507042127 | 52 | 6 | 0.0 | 5.0 | 0.00 | 0.00 | 0.00 | 95 | 1005.3 |
| 20260507041625 | 53 | 0 | 2.0 | 6.0 | 0.00 | 0.00 | 0.00 | 94 | 1005.5 |
| 20260507041122 | 53 | 288 | 3.0 | 14.0 | 0.00 | 0.00 | 0.00 | 94 | 1005.3 |
| 20260507040619 | 53 | 278 | 4.0 | 7.0 | 0.00 | 0.00 | 0.00 | 94 | 1005.1 |
| 20260507040115 | 53 | 266 | 5.0 | 5.0 | 0.00 | 0.00 | 0.00 | 94 | 1005.0 |
| 20260507035610 | 53 | 306 | 2.0 | 8.0 | 0.00 | 0.26 | 0.26 | 94 | 1004.8 |
| 20260507035101 | 54 | 324 | 3.0 | 5.0 | 0.00 | 0.26 | 0.26 | 96 | 1004.6 |
| 20260507034558 | 54 | 318 | 4.0 | 11.0 | 0.00 | 0.26 | 0.26 | 97 | 1004.7 |
| 20260507034056 | 54 | 0 | 3.0 | 5.0 | 0.00 | 0.26 | 0.26 | 98 | 1004.6 |
| 20260507033554 | 55 | 307 | 5.0 | 8.0 | 0.00 | 0.26 | 0.26 | 98 | 1004.5 |
| 20260507033051 | 55 | 71 | 2.0 | 9.0 | 0.00 | 0.26 | 0.26 | 99 | 1004.5 |
| 20260507032548 | 56 | 31 | 5.0 | 8.0 | 0.00 | 0.26 | 0.26 | 99 | 1004.2 |
| 20260507032044 | 57 | 343 | 1.0 | 8.0 | 0.00 | 0.26 | 0.26 | 99 | 1003.9 |
| 20260507031541 | 58 | 31 | 3.0 | 8.0 | 0.00 | 0.26 | 0.26 | 99 | 1004.2 |
| 20260507031038 | 58 | 327 | 5.0 | 6.0 | 0.00 | 0.26 | 0.26 | 99 | 1004.1 |
| 20260507030534 | 58 | 267 | 4.0 | 8.0 | 0.02 | 0.26 | 0.26 | 99 | 1004.0 |
| 20260507030032 | 59 | 354 | 4.0 | 7.0 | 0.02 | 0.26 | 0.26 | 99 | 1004.1 |
| 20260507025529 | 59 | 273 | 7.0 | 12.0 | 0.00 | 0.25 | 0.25 | 99 | 1003.8 |
| 20260507025027 | 59 | 31 | 1.0 | 3.0 | 0.00 | 0.25 | 0.25 | 99 | 1003.8 |
| 20260507024524 | 59 | 317 | 3.0 | 6.0 | 0.00 | 0.25 | 0.25 | 99 | 1003.7 |
| 20260507024021 | 59 | 219 | 0.0 | 7.0 | 0.00 | 0.25 | 0.25 | 99 | 1003.5 |
| 20260507023516 | 59 | 174 | 0.0 | 5.0 | 0.00 | 0.25 | 0.25 | 99 | 1003.5 |
| 20260507023015 | 59 | 267 | 4.0 | 8.0 | 0.00 | 0.25 | 0.25 | 99 | 1003.8 |
| 20260507022511 | 59 | 230 | 1.0 | 9.0 | 0.00 | 0.25 | 0.25 | 99 | 1003.6 |
| 20260507022006 | 59 | 26 | 0.0 | 3.0 | 0.00 | 0.25 | 0.25 | 99 | 1003.4 |
| 20260507021503 | 59 | 92 | 4.0 | 6.0 | 0.00 | 0.25 | 0.25 | 99 | 1003.5 |
| 20260507020959 | 59 | 287 | 3.0 | 5.0 | 0.00 | 0.25 | 0.25 | 99 | 1003.4 |
| 20260507020456 | 59 | 304 | 4.0 | 9.0 | 0.00 | 0.25 | 0.25 | 99 | 1003.5 |
| 20260507015953 | 59 | 268 | 2.0 | 7.0 | 0.00 | 0.25 | 0.25 | 99 | 1003.5 |
| 20260507015452 | 59 | 254 | 3.0 | 5.0 | 0.00 | 0.25 | 0.25 | 99 | 1003.7 |
| 20260507014949 | 59 | 56 | 0.0 | 6.0 | 0.00 | 0.25 | 0.25 | 99 | 1003.5 |
| 20260507014445 | 59 | 335 | 3.0 | 9.0 | 0.00 | 0.25 | 0.25 | 99 | 1003.9 |
| 20260507013941 | 59 | 266 | 3.0 | 11.0 | 0.00 | 0.25 | 0.25 | 99 | 1003.4 |
| 20260507013438 | 59 | 243 | 3.0 | 8.0 | 0.00 | 0.25 | 0.25 | 99 | 1003.8 |
| 20260507012935 | 59 | 107 | 3.0 | 8.0 | 0.00 | 0.25 | 0.25 | 99 | 1003.8 |
| 20260507012432 | 59 | 114 | 2.0 | 3.0 | 0.00 | 0.25 | 0.25 | 99 | 1003.7 |
| 20260507011928 | 59 | 248 | 1.0 | 6.0 | 0.00 | 0.25 | 0.25 | 99 | 1003.7 |
| 20260507011426 | 59 | 85 | 2.0 | 9.0 | 0.00 | 0.25 | 0.25 | 99 | 1003.7 |
| 20260507010920 | 59 | 95 | 2.0 | 7.0 | 0.00 | 0.25 | 0.25 | 99 | 1003.7 |
| 20260507010415 | 59 | 252 | 4.0 | 5.0 | 0.00 | 0.25 | 0.25 | 99 | 1003.7 |
| 20260507005913 | 59 | 89 | 2.0 | 8.0 | 0.00 | 0.25 | 0.25 | 99 | 1003.7 |
| 20260507005410 | 59 | 260 | 5.0 | 7.0 | 0.00 | 0.25 | 0.25 | 99 | 1004.0 |
| 20260507004906 | 59 | 72 | 0.0 | 3.0 | 0.00 | 0.25 | 0.25 | 99 | 1003.8 |
| 20260507004403 | 59 | 239 | 0.0 | 5.0 | 0.00 | 0.25 | 0.25 | 99 | 1003.9 |
| 20260507003900 | 59 | 113 | 2.0 | 6.0 | 0.00 | 0.25 | 0.25 | 99 | 1003.6 |
| 20260507003355 | 59 | 67 | 0.0 | 6.0 | 0.00 | 0.25 | 0.25 | 99 | 1003.6 |
| 20260507002851 | 59 | 60 | 6.0 | 6.0 | 0.00 | 0.25 | 0.25 | 99 | 1003.5 |
| 20260507002347 | 59 | 126 | 2.0 | 5.0 | 0.00 | 0.25 | 0.25 | 99 | 1003.8 |
| 20260507001845 | 59 | 18 | 2.0 | 4.0 | 0.00 | 0.25 | 0.25 | 99 | 1003.8 |
| 20260507001341 | 59 | 156 | 0.0 | 7.0 | 0.00 | 0.25 | 0.25 | 99 | 1003.6 |
| 20260507000838 | 59 | 290 | 2.0 | 7.0 | 0.00 | 0.25 | 0.25 | 99 | 1003.7 |
| 20260507000335 | 59 | 324 | 8.0 | 9.0 | 0.00 | 0.25 | 0.25 | 99 | 1003.7 |
| 20260506235830 | 59 | 72 | 3.0 | 8.0 | 0.00 | 0.25 | 0.25 | 99 | 1003.4 |
| 20260506235327 | 59 | 64 | 3.0 | 6.0 | 0.00 | 0.25 | 0.25 | 99 | 1003.7 |
| 20260506234823 | 59 | 295 | 2.0 | 6.0 | 0.02 | 0.25 | 0.25 | 99 | 1003.5 |
| 20260506234321 | 59 | 248 | 1.0 | 5.0 | 0.02 | 0.25 | 0.25 | 99 | 1003.3 |
| 20260506233818 | 59 | 75 | 4.0 | 5.0 | 0.02 | 0.25 | 0.25 | 99 | 1003.4 |
| 20260506233313 | 59 | 105 | 1.0 | 6.0 | 0.07 | 0.25 | 0.25 | 99 | 1003.4 |
| 20260506232811 | 59 | 80 | 2.0 | 8.0 | 0.14 | 0.24 | 0.24 | 99 | 1003.5 |
| 20260506232306 | 59 | 166 | 4.0 | 7.0 | 0.14 | 0.24 | 0.24 | 99 | 1003.5 |
| 20260506231803 | 59 | 86 | 2.0 | 6.0 | 0.07 | 0.22 | 0.22 | 99 | 1003.3 |
| 20260506231301 | 59 | 100 | 4.0 | 6.0 | 0.02 | 0.21 | 0.21 | 99 | 1003.7 |
| 20260506230758 | 59 | 205 | 2.0 | 5.0 | 0.05 | 0.21 | 0.21 | 99 | 1003.5 |
| 20260506230249 | 59 | 345 | 2.0 | 6.0 | 0.07 | 0.20 | 0.20 | 99 | 1003.9 |
| 20260506225745 | 59 | 248 | 4.0 | 7.0 | 0.12 | 0.20 | 0.20 | 99 | 1003.9 |
| 20260506225242 | 59 | 73 | 2.0 | 9.0 | 0.05 | 0.19 | 0.19 | 99 | 1003.7 |
| 20260506224733 | 59 | 263 | 0.0 | 5.0 | 0.00 | 0.18 | 0.18 | 99 | 1003.8 |
| 20260506224231 | 59 | 76 | 3.0 | 7.0 | 0.02 | 0.18 | 0.18 | 99 | 1003.8 |
| 20260506223727 | 59 | 282 | 0.0 | 7.0 | 0.02 | 0.18 | 0.18 | 99 | 1003.9 |
| 20260506223222 | 59 | 25 | 1.0 | 7.0 | 0.02 | 0.18 | 0.18 | 99 | 1003.9 |
| 20260506222720 | 59 | 73 | 1.0 | 4.0 | 0.02 | 0.18 | 0.18 | 99 | 1003.9 |
| 20260506222215 | 59 | 146 | 3.0 | 6.0 | 0.02 | 0.17 | 0.17 | 99 | 1004.0 |
| 20260506221713 | 59 | 106 | 3.0 | 6.0 | 0.05 | 0.17 | 0.17 | 99 | 1003.8 |
| 20260506221211 | 59 | 87 | 4.0 | 6.0 | 0.09 | 0.17 | 0.17 | 99 | 1004.2 |
| 20260506220708 | 60 | 253 | 3.0 | 6.0 | 0.14 | 0.17 | 0.17 | 99 | 1004.1 |
| 20260506220203 | 60 | 123 | 1.0 | 4.0 | 0.09 | 0.15 | 0.15 | 99 | 1004.0 |
| 20260506215700 | 60 | 94 | 3.0 | 5.0 | 0.02 | 0.14 | 0.14 | 99 | 1004.0 |
| 20260506215155 | 60 | 61 | 3.0 | 6.0 | 0.02 | 0.14 | 0.14 | 99 | 1004.1 |
| 20260506214652 | 60 | 233 | 1.0 | 7.0 | 0.02 | 0.14 | 0.14 | 99 | 1004.0 |
| 20260506214149 | 60 | 247 | 3.0 | 6.0 | 0.00 | 0.13 | 0.13 | 99 | 1004.3 |
| 20260506213648 | 60 | 348 | 2.0 | 5.0 | 0.00 | 0.13 | 0.13 | 99 | 1004.1 |
| 20260506213145 | 60 | 289 | 3.0 | 4.0 | 0.02 | 0.13 | 0.13 | 99 | 1004.2 |
| 20260506212642 | 60 | 106 | 5.0 | 9.0 | 0.05 | 0.13 | 0.13 | 98 | 1004.3 |
| 20260506212136 | 60 | 139 | 3.0 | 7.0 | 0.02 | 0.13 | 0.13 | 98 | 1004.5 |
| 20260506211633 | 60 | 336 | 7.0 | 9.0 | 0.02 | 0.13 | 0.13 | 98 | 1004.5 |
| 20260506211129 | 60 | 89 | 0.0 | 4.0 | 0.02 | 0.12 | 0.12 | 98 | 1004.8 |
| 20260506210627 | 60 | 247 | 3.0 | 6.0 | 0.05 | 0.12 | 0.12 | 98 | 1004.7 |
| 20260506210123 | 60 | 79 | 2.0 | 6.0 | 0.05 | 0.12 | 0.12 | 97 | 1004.6 |
| 20260506205620 | 60 | 343 | 3.0 | 11.0 | 0.05 | 0.11 | 0.11 | 97 | 1004.9 |
| 20260506205114 | 60 | 40 | 2.0 | 4.0 | 0.05 | 0.11 | 0.11 | 97 | 1004.6 |
| 20260506204613 | 60 | 274 | 5.0 | 9.0 | 0.02 | 0.11 | 0.11 | 96 | 1004.7 |
| 20260506204109 | 61 | 103 | 2.0 | 11.0 | 0.02 | 0.10 | 0.10 | 97 | 1004.7 |
| 20260506203608 | 61 | 178 | 3.0 | 11.0 | 0.05 | 0.10 | 0.10 | 97 | 1004.7 |
| 20260506203104 | 61 | 75 | 2.0 | 5.0 | 0.09 | 0.10 | 0.10 | 97 | 1004.8 |
| 20260506202602 | 61 | 77 | 3.0 | 5.0 | 0.07 | 0.09 | 0.09 | 96 | 1004.8 |
| 20260506202058 | 62 | 252 | 2.0 | 3.0 | 0.05 | 0.08 | 0.08 | 96 | 1004.6 |
| 20260506201555 | 62 | 37 | 2.0 | 3.0 | 0.09 | 0.08 | 0.08 | 95 | 1004.5 |
| 20260506201052 | 62 | 43 | 0.0 | 6.0 | 0.07 | 0.07 | 0.07 | 95 | 1004.5 |
| 20260506200548 | 62 | 259 | 2.0 | 6.0 | 0.02 | 0.07 | 0.07 | 94 | 1004.9 |
| 20260506200045 | 62 | 269 | 0.0 | 5.0 | 0.00 | 0.06 | 0.06 | 94 | 1004.6 |
| 20260506195542 | 62 | 281 | 3.0 | 4.0 | 0.02 | 0.06 | 0.06 | 93 | 1004.7 |
| 20260506195038 | 62 | 59 | 2.0 | 6.0 | 0.05 | 0.06 | 0.06 | 93 | 1004.5 |
| 20260506194536 | 62 | 117 | 3.0 | 8.0 | 0.05 | 0.06 | 0.06 | 93 | 1004.5 |
| 20260506194032 | 63 | 70 | 2.0 | 6.0 | 0.05 | 0.06 | 0.06 | 93 | 1004.7 |
| 20260506193530 | 63 | 227 | 3.0 | 5.0 | 0.07 | 0.05 | 0.05 | 91 | 1004.9 |
| 20260506193027 | 63 | 267 | 2.0 | 6.0 | 0.09 | 0.05 | 0.05 | 89 | 1004.7 |
| 20260506192524 | 64 | 238 | 1.0 | 3.0 | 0.07 | 0.04 | 0.04 | 89 | 1004.7 |
| 20260506192019 | 64 | 259 | 1.0 | 4.0 | 0.05 | 0.03 | 0.03 | 88 | 1005.0 |